Location: Praha
(50.0830°N, 14.4670°E)
Time: 04:51:30
(UTC+01:00)

ISS - Pass Details

Date: 26 February 2021
Orbit: 417 x 422 km, 51.6° (Epoch: 03 March)

Event Time Altitude Azimuth Distance (km) Brightness Sun altitude
Exits shadow 04:04:41 18° 106° (ESE) 1,101 -1.1 -27.2°
Drops below altitude 10° 04:06:00 10° 88° (E) 1,497 -0.1 -27.0°
Sets 04:08:20 0° 74° (ENE) 2,365 1.4 -26.7°
